SAS001 ENEV-ENGM

Flight info

Callsign SAS001
Flight time N/A
Altitude 36000
Route GEPTU DCT GUBAV DCT SOMUB DCT BELGU
Aircraft A320/M-SDE3FGHIRWY/LB1

Departure

Time 2026-04-29 15:37
Airport Harstad/Narvik Airport (ENEV)

Arrival

Time N/A
Airport Oslo-Gardermoen International Airport (ENGM)
Time Latitude Longitude Altitude Speed Heading
2026-04-29 15:15 68.48982 16.68517 92 ft 0 kts 357°
2026-04-29 15:28 68.48952 16.68520 92 ft 4 kts 357°
2026-04-29 15:28 68.48925 16.68524 91 ft 4 kts 357°
2026-04-29 15:29 68.48898 16.68527 94 ft 4 kts 357°
2026-04-29 15:29 68.48892 16.68528 94 ft 0 kts 357°
2026-04-29 15:31 68.48897 16.68523 94 ft 1 kts 339°
2026-04-29 15:31 68.48897 16.68481 92 ft 5 kts 270°
2026-04-29 15:31 68.48892 16.68325 90 ft 12 kts 267°
2026-04-29 15:31 68.48952 16.68200 88 ft 15 kts
2026-04-29 15:32 68.49062 16.68192 90 ft 17 kts 357°
2026-04-29 15:32 68.49186 16.68176 91 ft 19 kts 354°
2026-04-29 15:32 68.49332 16.68160 88 ft 22 kts 360°
2026-04-29 15:32 68.49478 16.68148 70 ft 21 kts 358°
2026-04-29 15:33 68.49617 16.68140 66 ft 19 kts 357°
2026-04-29 15:33 68.49733 16.68118 73 ft 15 kts 357°
2026-04-29 15:33 68.49836 16.68109 73 ft 14 kts 358°
2026-04-29 15:33 68.49947 16.68094 67 ft 19 kts 356°
2026-04-29 15:34 68.50099 16.68080 72 ft 23 kts 358°
2026-04-29 15:34 68.50236 16.68061 81 ft 16 kts 356°
2026-04-29 15:34 68.50331 16.68044 83 ft 13 kts 349°
2026-04-29 15:34 68.50381 16.67927 89 ft 7 kts 291°
2026-04-29 15:35 68.50382 16.67792 92 ft 7 kts 265°
2026-04-29 15:35 68.50354 16.67676 92 ft 8 kts 186°
2026-04-29 15:35 68.50324 16.67680 93 ft 0 kts 176°
2026-04-29 15:36 68.50313 16.67682 95 ft 11 kts 176°
2026-04-29 15:36 68.49970 16.67717 84 ft 85 kts 178°
2026-04-29 15:36 68.49187 16.67802 97 ft 139 kts 178°
2026-04-29 15:36 68.48107 16.67935 391 ft 161 kts 178°
2026-04-29 15:37 68.46963 16.68063 1089 ft 164 kts 179°
2026-04-29 15:37 68.45802 16.68257 1710 ft 175 kts 180°
2026-04-29 15:37 68.44507 16.68397 1973 ft 197 kts 184°
2026-04-29 15:37 68.43204 16.67065 2256 ft 213 kts 227°
2026-04-29 15:38 68.42584 16.63408 2776 ft 229 kts 265°
2026-04-29 15:38 68.42862 16.59023 3493 ft 241 kts 280°
2026-04-29 15:38 68.42943 16.54547 4461 ft 237 kts 261°
2026-04-29 15:38 68.42544 16.50222 5464 ft 236 kts 253°
2026-04-29 15:39 68.41986 16.45995 6325 ft 240 kts 251°
2026-04-29 15:39 68.41381 16.41721 7089 ft 245 kts 252°
2026-04-29 15:39 68.40770 16.37404 7831 ft 251 kts 250°
2026-04-29 15:39 68.39864 16.33264 8572 ft 262 kts 236°
2026-04-29 15:40 68.38539 16.29776 9353 ft 269 kts 226°
2026-04-29 15:40 68.37108 16.26443 10120 ft 273 kts 227°
2026-04-29 15:40 68.35648 16.22985 10568 ft 288 kts 227°
2026-04-29 15:40 68.34087 16.19241 10761 ft 311 kts 227°
2026-04-29 15:41 68.32416 16.15230 11029 ft 329 kts 227°
2026-04-29 15:41 68.30676 16.11089 11587 ft 336 kts 227°
2026-04-29 15:41 68.28858 16.07011 12203 ft 343 kts 224°
2026-04-29 15:41 68.26952 16.03047 12816 ft 349 kts 223°
2026-04-29 15:42 68.24991 15.99118 13430 ft 354 kts 222°
2026-04-29 15:42 68.22986 15.95148 14053 ft 359 kts 223°
2026-04-29 15:42 68.20963 15.91137 14629 ft 363 kts 223°
2026-04-29 15:42 68.18930 15.87081 15229 ft 365 kts 223°
2026-04-29 15:43 68.16891 15.82993 15848 ft 367 kts 224°
2026-04-29 15:43 68.14842 15.78865 16461 ft 369 kts 224°